IQUEBE275 Weather Reports


time (UTC)temp
C
wind
direction
speed
KPH
gust
KPH
rain 1hr
cm
rain 24hr
cm
rain mn
cm
humidity
%
barometer
mb
20260508023545 4 327 1.6 0.0 0.00 0.00 0.20 58 1004.2
20260508023104 4 330 3.2 0.0 0.00 0.00 0.20 59 1004.3
20260508022502 4 322 1.6 0.0 0.00 0.00 0.20 59 1004.3
20260508022050 4 314 1.6 0.0 0.00 0.00 0.20 59 1004.4
20260508021006 5 323 1.6 0.0 0.00 0.00 0.20 59 1004.3
20260508020558 5 329 1.6 0.0 0.00 0.00 0.20 60 1004.3
20260508015548 5 317 3.2 0.0 0.00 0.00 0.20 60 1004.3
20260508015109 5 360 3.2 0.0 0.00 0.00 0.20 60 1004.2
20260508014509 5 333 1.6 0.0 0.00 0.00 0.20 60 1004.1
20260508014058 5 313 1.6 0.0 0.00 0.00 0.20 61 1004.2
20260508013040 5 310 1.6 0.0 0.00 0.00 0.20 63 1004.2
20260508012555 5 298 1.6 0.0 0.00 0.00 0.20 64 1004.2
20260508012113 6 271 1.6 0.0 0.00 0.00 0.20 64 1004.2
20260508011538 6 299 3.2 0.0 0.00 0.00 0.20 65 1004.2
20260508011056 6 323 3.2 0.0 0.00 0.00 0.20 66 1004.1
20260508010011 6 302 1.6 0.0 0.00 0.00 0.20 67 1004.1
20260508005557 6 258 1.6 0.0 0.00 0.00 0.20 67 1004.0
20260508004518 6 290 1.6 0.0 0.00 0.00 0.20 67 1004.0
20260508004108 6 332 3.2 0.0 0.00 0.00 0.20 67 1003.9
20260508003506 6 308 1.6 0.0 0.00 0.00 0.20 68 1004.0
20260508003048 6 351 1.6 0.0 0.00 0.00 0.20 68 1003.9
20260508002610 7 298 3.2 0.0 0.00 0.00 0.20 68 1003.9
20260508002038 7 328 3.2 0.0 0.00 0.00 0.20 68 1003.8
20260508001552 7 316 3.2 0.0 0.00 0.00 0.20 68 1003.7
20260508001114 7 311 3.2 0.0 0.00 0.00 0.20 68 1003.7
20260508000541 7 327 4.8 0.0 0.00 0.00 0.20 68 1003.6
20260507235508 7 333 4.8 0.0 0.00 0.00 0.20 68 1003.4
20260507235056 7 330 3.2 0.0 0.00 0.00 0.20 68 1003.5
20260507234043 7 315 4.8 0.0 0.00 0.00 0.20 68 1003.4
20260507233559 7 330 4.8 0.0 0.00 0.00 0.20 68 1003.3
20260507232516 7 315 8.0 0.0 0.00 0.00 0.20 68 1003.1
20260507232105 7 325 6.4 0.0 0.00 0.00 0.20 68 1003.0
20260507231047 7 264 6.4 0.0 0.00 0.00 0.20 68 1002.9
20260507230604 7 315 8.0 0.0 0.00 0.00 0.20 68 1002.8
20260507230003 7 281 8.0 0.0 0.00 0.00 0.20 68 1002.8
20260507225551 7 283 8.0 0.0 0.00 0.00 0.20 68 1002.8
20260507224512 7 342 8.0 0.0 0.00 0.00 0.20 68 1002.7
20260507224059 7 287 8.0 0.0 0.00 0.00 0.20 68 1002.6
20260507223016 7 275 8.0 0.0 0.00 0.00 0.20 67 1002.6
20260507222605 7 288 6.4 0.0 0.00 0.00 0.20 67 1002.6
20260507222005 7 287 4.8 0.0 0.00 0.00 0.20 66 1002.5
20260507221556 7 288 6.4 0.0 0.00 0.00 0.20 66 1002.4
20260507221115 7 326 8.0 0.0 0.00 0.00 0.20 66 1002.4
20260507220544 8 290 8.0 0.0 0.00 0.00 0.20 66 1002.4
20260507220101 8 284 8.0 0.0 0.00 0.00 0.20 66 1002.4
20260507215021 8 303 9.7 0.0 0.00 0.00 0.20 67 1002.3
20260507214609 8 307 4.8 0.0 0.00 0.00 0.20 66 1002.3
20260507214005 8 298 3.2 0.0 0.00 0.00 0.20 66 1002.3
20260507213553 8 284 4.8 0.0 0.00 0.00 0.20 66 1002.3
20260507213114 8 287 4.8 0.0 0.00 0.00 0.20 66 1002.3
20260507212511 8 346 3.2 0.0 0.00 0.00 0.20 66 1002.2
20260507212102 8 311 6.4 0.0 0.00 0.00 0.20 66 1002.2
20260507211011 8 296 8.0 0.0 0.00 0.00 0.20 67 1002.1
20260507210553 8 325 8.0 0.0 0.00 0.00 0.20 67 1002.1
20260507205511 8 298 8.0 0.0 0.00 0.00 0.20 67 1002.0
20260507205055 8 285 9.7 0.0 0.00 0.00 0.20 68 1002.0
20260507204049 8 288 6.4 0.0 0.00 0.00 0.20 68 1001.9
20260507203605 8 296 6.4 0.0 0.00 0.00 0.20 67 1001.8
20260507203001 8 301 4.8 0.0 0.00 0.00 0.20 67 1001.8
20260507202551 8 280 4.8 0.0 0.00 0.00 0.20 66 1001.8
20260507201513 7 260 4.8 0.0 0.00 0.00 0.20 65 1001.8
20260507201103 7 336 4.8 0.0 0.00 0.00 0.20 64 1001.8
20260507200014 7 309 3.2 0.0 0.00 0.00 0.20 62 1001.9
20260507195607 7 338 3.2 0.0 0.00 0.00 0.20 63 1001.9
20260507194519 7 344 6.4 0.0 0.00 0.00 0.20 64 1002.0
20260507194107 7 329 8.0 0.0 0.00 0.00 0.20 64 1002.0
20260507193051 7 311 9.7 0.0 0.00 0.00 0.20 66 1002.1
20260507192610 7 317 8.0 0.0 0.00 0.00 0.20 65 1002.1
20260507192007 8 299 8.0 0.0 0.00 0.00 0.20 65 1001.9
20260507191600 8 325 11.3 0.0 0.00 0.00 0.20 66 1001.9
20260507190517 8 300 11.3 0.0 0.00 0.00 0.20 67 1001.9
20260507190108 9 295 12.9 0.0 0.00 0.00 0.20 66 1001.9
20260507185021 10 291 6.4 0.0 0.00 0.00 0.20 64 1001.7
20260507184612 10 281 4.8 0.0 0.00 0.00 0.20 59 1001.7
20260507184005 9 260 1.6 0.0 0.00 0.00 0.20 59 1001.7
20260507183556 9 261 1.6 0.0 0.00 0.00 0.20 60 1001.8
20260507183110 9 261 4.8 0.0 0.00 0.00 0.20 60 1001.8
20260507182538 9 246 4.8 0.0 0.00 0.00 0.20 58 1001.9
20260507182059 8 234 4.8 0.0 0.00 0.00 0.20 54 1002.0
20260507181618 8 273 3.2 0.0 0.00 0.00 0.20 50 1002.0
20260507181043 8 242 3.2 0.0 0.00 0.00 0.20 47 1002.0
20260507180605 7 311 3.2 0.0 0.00 0.00 0.20 46 1002.1
20260507180006 7 263 1.6 0.0 0.00 0.00 0.20 43 1002.2
20260507175553 7 245 3.2 0.0 0.00 0.00 0.20 42 1002.2
20260507175115 7 240 4.8 0.0 0.00 0.00 0.20 43 1002.4
20260507174505 7 244 6.4 0.0 0.00 0.00 0.20 42 1002.4
20260507174055 6 229 6.4 0.0 0.00 0.00 0.20 42 1002.4
20260507173043 6 284 4.8 0.0 0.00 0.00 0.20 39 1002.4
20260507172558 6 291 4.8 0.0 0.00 0.00 0.20 39 1002.4
20260507171516 6 274 4.8 0.0 0.00 0.00 0.20 39 1002.5
20260507171109 6 288 6.4 0.0 0.00 0.00 0.20 39 1002.5
20260507170505 6 279 4.8 0.0 0.00 0.00 0.20 39 1002.6
20260507165613 6 254 4.8 0.0 0.00 0.00 0.20 40 1002.6
20260507165039 6 275 4.8 0.0 0.00 0.00 0.20 41 1002.7
20260507164607 6 262 4.8 0.0 0.00 0.00 0.20 41 1002.7
20260507163549 6 306 3.2 0.0 0.00 0.00 0.15 42 1002.7
20260507163104 6 241 3.2 0.0 0.00 0.00 0.15 43 1002.7
20260507162505 6 232 1.6 0.0 0.00 0.00 0.13 45 1002.6
20260507162053 6 232 1.6 0.0 0.00 0.00 0.10 45 1002.7
20260507161608 6 232 1.6 0.0 0.00 0.00 0.08 47 1002.6
20260507161004 7 232 0.0 0.0 0.00 0.00 0.05 47 1002.7
20260507160555 7 234 0.0 0.0 0.00 0.00 0.05 47 1002.6
20260507160109 7 234 1.6 0.0 0.00 0.00 0.05 47 1002.6
20260507155506 7 250 1.6 0.0 0.00 0.00 0.03 46 1002.7
20260507155059 7 250 1.6 0.0 0.00 0.00 0.03 47 1002.8
20260507154044 7 250 3.2 0.0 0.00 0.00 0.03 49 1002.9
20260507153602 7 237 1.6 0.0 0.00 0.00 0.03 50 1003.0
20260507153002 7 315 3.2 0.0 0.00 0.00 0.00 51 1003.0
20260507152553 7 323 1.6 0.0 0.00 0.00 0.00 52 1003.0
20260507152112 7 319 0.0 0.0 0.00 0.00 0.00 51 1003.0
20260507151511 7 319 0.0 0.0 0.00 0.00 0.00 50 1003.2
20260507151100 7 248 1.6 0.0 0.00 0.00 0.00 49 1003.2
20260507150620 7 248 3.2 0.0 0.00 0.00 0.00 48 1003.3
20260507150021 7 284 3.2 0.0 0.00 0.00 0.00 46 1003.4
20260507145601 7 275 3.2 0.0 0.00 0.00 0.00 46 1003.4
20260507145112 7 319 4.8 0.0 0.00 0.00 0.00 45 1003.4
20260507144008 6 252 4.8 0.0 0.00 0.00 0.00 44 1003.5
20260507143520 6 238 4.8 0.0 0.00 0.00 0.00 44 1003.5
20260507143114 6 230 6.4 0.0 0.00 0.00 0.00 44 1003.5
20260507142004 6 257 8.0 0.0 0.00 0.00 0.00 46 1003.7
20260507141510 6 223 6.4 0.0 0.00 0.00 0.00 46 1003.7
20260507141017 6 215 4.8 0.0 0.00 0.00 0.00 45 1003.8
20260507140601 6 225 3.2 0.0 0.00 0.00 0.00 44 1003.6
20260507135002 6 234 1.6 0.0 0.00 0.00 0.00 43 1003.5
20260507134546 6 237 3.2 0.0 0.00 0.00 0.00 42 1003.5
20260507134057 6 232 4.8 0.0 0.00 0.00 0.00 43 1003.6
20260507133606 6 232 6.4 0.0 0.00 0.00 0.00 43 1003.6
20260507132008 6 234 4.8 0.0 0.00 0.00 0.00 41 1003.6
20260507131553 6 215 4.8 0.0 0.00 0.00 0.00 40 1003.5
20260507131056 6 235 4.8 0.0 0.00 0.00 0.00 39 1003.5
20260507130604 6 255 3.2 0.0 0.00 0.00 0.00 38 1003.5
20260507130112 5 252 3.2 0.0 0.00 0.00 0.00 38 1003.6
20260507125008 5 236 4.8 0.0 0.00 0.00 0.00 38 1003.8
20260507124529 5 229 3.2 0.0 0.00 0.00 0.00 37 1003.7
20260507124100 5 233 1.6 0.0 0.00 0.00 0.00 37 1003.9
20260507033046 4 325 1.6 0.0 0.00 0.00 0.81 37 1005.5
20260507032605 4 322 0.0 0.0 0.00 0.00 0.81 37 1005.6
20260507032005 4 322 1.6 0.0 0.00 0.00 0.81 37 1005.5
20260507031555 4 317 1.6 0.0 0.00 0.00 0.81 37 1005.4
20260507030546 4 327 0.0 0.0 0.00 0.00 0.81 38 1005.6
20260507030106 4 327 0.0 0.0 0.00 0.00 0.81 38 1005.6
20260507025504 4 327 0.0 0.0 0.00 0.00 0.81 38 1005.6
20260507025051 4 328 1.6 0.0 0.00 0.00 0.81 38 1005.6
20260507024609 4 328 1.6 0.0 0.00 0.00 0.81 38 1005.6